This is the latest recevied weather packets stored in our database for station/object IW2NIA-3. If no packets are shown the sender has not sent any weather packets the latest 10 day(s).
| Time | Temp. | Humidity | Pressure | Rain* | Wind** | Luminosity | Snow |
|---|---|---|---|---|---|---|---|
| 1788360510 | 30° C | 53% | 1016.7 hPa | 0 mm | - | - | - |
| 1788359625 | 30° C | 49% | 1016.8 hPa | 0 mm | - | - | - |
| 1788358716 | 30° C | 53% | 1016.8 hPa | 0 mm | - | - | - |
| 1788357829 | 30° C | 54% | 1016.9 hPa | 0 mm | - | - | - |
| 1788356927 | 30° C | 54% | 1017.1 hPa | 0 mm | - | - | - |
| 1788356018 | 29.44° C | 58% | 1017 hPa | 0 mm | - | - | - |
| 1788355110 | 29.44° C | 56% | 1017.3 hPa | 0 mm | - | - | - |
| 1788354227 | 29.44° C | 54% | 1017.5 hPa | 0 mm | - | - | - |
| 1788353323 | 28.89° C | 59% | 1017.6 hPa | 0 mm | - | - | - |
| 1788352422 | 28.89° C | 58% | 1017.8 hPa | 0 mm | - | - | - |
| 1788351510 | 28.89° C | 60% | 1018 hPa | 0 mm | - | - | - |
| 1788350614 | 28.89° C | 60% | 1018.1 hPa | 0 mm | - | - | - |
| 1788349729 | 28.33° C | 60% | 1018.3 hPa | 0 mm | - | - | - |
| 1788348826 | 28.33° C | 64% | 1018.4 hPa | 0 mm | - | - | - |
| 1788347925 | 27.78° C | 63% | 1018.5 hPa | 0 mm | - | - | - |
| 1788347020 | 27.78° C | 62% | 1018.7 hPa | 0 mm | - | - | - |
| 1788346112 | 27.22° C | 63% | 1018.8 hPa | 0 mm | - | - | - |
| 1788345208 | 27.22° C | 62% | 1018.9 hPa | 0 mm | - | - | - |
| 1788344316 | 27.22° C | 66% | 1019.1 hPa | 0 mm | - | - | - |
| 1788343429 | 26.67° C | 64% | 1019.1 hPa | 0 mm | - | - | - |
| 1788342521 | 26.67° C | 66% | 1019.2 hPa | 0 mm | - | - | - |
| 1788341620 | 26.11° C | 66% | 1019.4 hPa | 0 mm | - | - | - |
| 1788340720 | 26.11° C | 67% | 1019.3 hPa | 0 mm | - | - | - |
| 1788339811 | 26.11° C | 68% | 1019.3 hPa | 0 mm | - | - | - |
| 1788338926 | 25.56° C | 68% | 1019.3 hPa | 0 mm | - | - | - |
* Rain latest hour (hover to see other rain measurements)
** Current wind speed in m/s (hover to see current wind gust speed)